Content
SEND FEEDBACK

Daily
Averages
Monthly
Summary
United States of America

HILLSIDE, NEW JERSEY


Home > North America > United States > New Jersey
Elevation: 40 feet     Latitude: 40 40N     Longitude: 074 14W

WEATHER
 
SELECT A DAY
Number of Records: 189,740;   Date Range: 1/1/95 - 8/12/14
 
SHARE

PRINT THIS DATA

[ ← Previous Day ]
WEATHER ALMANAC - MAY 9, 2013
[ Next Day → ]
[ °C ]   °F
Weather ElementAverageHighLow
Temperature60.4 °F70 °F (3:51 pm)57 °F (1:51 am)
Dewpoint55.3 °F57.9 °F (12:51 pm)51.8 °F (2:07 pm)
Humidity84.6 %100 % (10:25 am)53 % (3:51 pm)
Barometer29.94 in29.98 in (1:51 am)29.89 in (3:51 pm)
Wind Speed5.6 mph10.4 mph (1:51 pm)
Wind Gust18.4 mph (1:51 pm)
Weather ElementAverage
Visibility5.5 mi
Wind DirectionSSW (189.3 °)

Weather ElementTotal
Precipitation3.48 in
Heating Degree Days1.5 (Base 65)
Growing Degree Days13.5 (Base 50)
Averaged from 43 records on May 9, 2013
WEATHER CONDITIONS BREAKOUT
WIND DIRECTION BREAKOUT
WEATHER BY HOUR - MAY 9, 2013
[ °C ]   °F
Local TimeTemperatureDewpointHumidityBarometerVisibilityWind DirectionWind SpeedGust SpeedPrecipitationEventsConditions
1:51 AM57.0 °F54.0 °F89 %29.98 in10.0 miEast (90°)4.6 mphScattered Clouds
2:51 AM57.0 °F55.0 °F93 %29.96 in6.0 miEast (100°)5.8 mphOvercast
3:40 AM57.2 °F55.4 °F94 %29.95 in5.0 miEast (100°)6.9 mph0.00 inRainLight Rain
3:51 AM57.0 °F55.0 °F93 %29.96 in4.0 miSE (130°)4.6 mph0.00 inRainLight Rain
3:58 AM57.2 °F55.4 °F94 %29.96 in1.0 miEast (100°)4.6 mph0.00 inRainLight Rain
4:44 AM57.2 °F55.4 °F94 %29.95 in1.0 miEast (100°)6.9 mph0.00 inOvercast
4:51 AM57.0 °F55.9 °F96 %29.95 in1.0 miEast (90°)4.6 mph0.00 inOvercast
5:28 AM57.2 °F55.4 °F94 %29.94 in2.5 miENE (70°)3.5 mph0.00 inRainLight Rain
5:33 AM57.2 °F55.4 °F94 %29.95 in4.0 miENE (70°)3.5 mph0.00 inRainLight Rain
5:51 AM57.0 °F55.0 °F93 %29.95 in4.0 miENE (70°)4.6 mph0.00 inRainLight Rain
6:51 AM57.9 °F55.0 °F90 %29.95 in6.0 miENE (60°)4.6 mph0.00 inOvercast
7:48 AM59.0 °F55.4 °F88 %29.95 in4.0 miENE (60°)6.9 mph0.00 inRainLight Rain
7:51 AM57.9 °F55.9 °F93 %29.95 in4.0 miENE (70°)6.9 mph0.00 inRainLight Rain
7:55 AM57.2 °F55.4 °F94 %29.95 in4.0 miEast (80°)6.9 mph0.00 inRainLight Rain
8:17 AM57.2 °F55.4 °F94 %29.96 in2.0 miENE (60°)4.6 mph0.05 inRainHeavy Rain
8:26 AM57.2 °F55.4 °F94 %29.96 in1.0 miNE (40°)4.6 mph0.15 inRainHeavy Rain
8:41 AM57.2 °F55.4 °F94 %29.95 in1.0 miCalm0.35 inRainHeavy Rain
8:49 AM57.2 °F55.4 °F94 %29.95 in1.0 miNW (320°)8.1 mph0.45 inRainHeavy Rain
8:51 AM57.0 °F55.9 °F96 %29.95 in1.0 miNW (320°)8.1 mph0.48 inRainHeavy Rain
9:08 AM57.2 °F55.4 °F94 %29.94 in1.0 miNW (320°)5.8 mph0.28 inRainHeavy Rain
9:17 AM57.2 °F55.4 °F94 %29.95 in1.0 miNW (310°)8.1 mph0.33 inRainHeavy Rain
9:51 AM57.0 °F55.9 °F96 %29.95 in1.0 miNorth (350°)5.8 mph0.57 inRainHeavy Rain
10:04 AM57.2 °F55.4 °F94 %29.94 in1.5 miNorth (350°)6.9 mph0.06 inRainRain
10:13 AM57.2 °F55.4 °F94 %29.94 in1.5 miNNW (340°)5.8 mph0.11 inRainHeavy Rain
10:25 AM57.2 °F57.2 °F100 %29.94 in1.5 miCalm0.21 inRainHeavy Rain
10:51 AM57.0 °F57.0 °F100 %29.95 in1.5 miNorth (10°)4.6 mph0.35 inRainRain
11:29 AM59.0 °F57.2 °F94 %29.94 in4.0 miNorth (360°)6.9 mph0.03 inRainLight Rain
11:51 AM60.1 °F55.9 °F86 %29.94 in9.0 miNW (320°)4.6 mph0.03 inRainLight Rain
12:24 PM62.6 °F57.2 °F82 %29.94 in10.0 miNW (320°)4.6 mph0.00 inRainLight Rain
12:51 PM64.0 °F57.9 °F80 %29.93 in10.0 miWNW (290°)5.8 mph0.00 inRainLight Rain
1:22 PM66.2 °F55.4 °F68 %29.92 in10.0 miNW (320°)6.9 mphMostly Cloudy
1:51 PM68.0 °F54.0 °F61 %29.92 in10.0 miNW (320°)10.4 mph18.4 mphMostly Cloudy
2:07 PM68.0 °F51.8 °F56 %29.91 in10.0 miNW (310°)9.2 mphMostly Cloudy
2:51 PM66.9 °F54.0 °F63 %29.91 in10.0 miNNW (330°)8.1 mphMostly Cloudy
3:51 PM70.0 °F52.0 °F53 %29.89 in10.0 miWest (270°)8.1 mphMostly Cloudy
4:51 PM66.0 °F55.0 °F68 %29.90 in10.0 miWest (260°)6.9 mph16.1 mph0.03 inRainLight Rain
5:51 PM66.9 °F55.9 °F68 %29.89 in10.0 miWest (260°)5.8 mph0.00 inRainLight Rain
6:51 PM68.0 °F55.9 °F65 %29.90 in10.0 miWSW (240°)4.6 mph0.00 inMostly Cloudy
7:51 PM66.9 °F55.0 °F66 %29.92 in10.0 miSW (230°)4.6 mphMostly Cloudy
8:51 PM66.0 °F54.0 °F65 %29.94 in10.0 miWSW (240°)8.1 mphMostly Cloudy
9:51 PM64.9 °F54.0 °F68 %29.94 in10.0 miWSW (240°)6.9 mphScattered Clouds
10:51 PM64.0 °F55.0 °F73 %29.94 in10.0 miCalmScattered Clouds
11:51 PM60.1 °F54.0 °F80 %29.94 in10.0 miSW (220°)3.5 mphScattered Clouds
Hourly data recorded from KEWR, located miles away from Hillside, New Jersey







STORIES FROM OUR PARTNERS